Artesia, NM

11:52 AM MST on December 14, 2019 (GMT -0700)
Artesia Municipal

Weather History for KATS - November, 2019

Change the Weather History Date:

Friday, November 22, 2019

  Actual Average Record
Temperature  
Mean Temperature 49 °F -  
Max Temperature 57 °F 62 °F 82 °F (1998)
Min Temperature 41 °F 27 °F 13 °F (1975)
Degree Days  
Heating Degree Days 16    
Moisture  
Dew Point 42 °F    
Average Humidity 88    
Maximum Humidity 100    
Minimum Humidity 55    
Precipitation  
Precipitation 0.00 in - - ()
Sea Level Pressure  
Sea Level Pressure 30.12 in    
Wind  
Wind Speed 10 mph (NW)    
Max Wind Speed 16 mph    
Max Gust Speed 21 mph    
Visibility 10 miles    
Events      
Averages and records for this station are not official NWS values.
T = Trace of Precipitation, MM = Missing Value Source: NWS Daily Summary

Daily Weather History Graph

Daily Weather History Graph

Search for Another Location

Airport or City:

Astronomy

Nov. 22, 2019 Rise Set
Actual Time 6:34 AM MST 4:53 PM MST
Civil Twilight 6:07 AM MST 5:19 PM MST
Nautical Twilight 5:37 AM MST 5:49 PM MST
Astronomical Twilight 5:08 AM MST 6:19 PM MST
Moon 2:02 AM MST (11/22) 2:38 PM MST (11/22)
Length of Visible Light 11h 12m
Length of Day
10h 18m
Waning Crescent, 19% of the Moon is Illuminated
Nov 22
Waning Crescent
Nov 26
New
Dec 3
First Quarter
Dec 11
Full
Dec 18
Last Quarter

Hourly Weather History & Observations

Time (MST) Temp. Windchill Dew Point Humidity Pressure Visibility Wind Dir Wind Speed Gust Speed Precip Events Conditions
12:15 AM 44.6 °F 39.7 °F 44.6 °F 100% 30.13 in 10.0 mi North 9.2 mph - N/A   Overcast
12:35 AM 44.6 °F 38.8 °F 44.6 °F 100% 30.12 in 10.0 mi North 11.5 mph - N/A   Overcast
1:15 AM 42.8 °F 35.8 °F 42.8 °F 100% 30.12 in 10.0 mi North 13.8 mph - N/A   Overcast
1:55 AM 42.8 °F 38.0 °F 42.8 °F 100% 30.13 in 10.0 mi North 8.1 mph - N/A   Overcast
2:15 AM 42.8 °F 36.6 °F 42.8 °F 100% 30.15 in 10.0 mi NNW 11.5 mph - N/A   Overcast
2:35 AM 42.8 °F 37.5 °F 42.8 °F 100% 30.14 in 10.0 mi North 9.2 mph - N/A   Overcast
2:55 AM 42.8 °F 36.6 °F 42.8 °F 100% 30.15 in 10.0 mi North 11.5 mph - N/A   Overcast
3:15 AM 42.8 °F 36.6 °F 42.8 °F 100% 30.15 in 10.0 mi North 11.5 mph - N/A   Overcast
3:35 AM 41.0 °F 34.3 °F 41.0 °F 100% 30.15 in 10.0 mi North 11.5 mph - N/A   Overcast
3:55 AM 41.0 °F 33.9 °F 41.0 °F 100% 30.15 in 10.0 mi North 12.7 mph - N/A   Overcast
4:15 AM 41.0 °F 33.5 °F 41.0 °F 100% 30.15 in 10.0 mi North 13.8 mph - N/A   Overcast
4:35 AM 41.0 °F 34.3 °F 41.0 °F 100% 30.15 in 10.0 mi NNE 11.5 mph - N/A   Overcast
4:55 AM 41.0 °F 34.7 °F 41.0 °F 100% 30.16 in 10.0 mi North 10.4 mph - N/A   Overcast
5:15 AM 41.0 °F 34.7 °F 41.0 °F 100% 30.16 in 10.0 mi NNE 10.4 mph - N/A   Overcast
5:35 AM 41.0 °F 33.5 °F 41.0 °F 100% 30.16 in 10.0 mi North 13.8 mph - N/A   Overcast
5:55 AM 41.0 °F 33.9 °F 41.0 °F 100% 30.15 in 10.0 mi NNE 12.7 mph - N/A   Overcast
6:15 AM 41.0 °F 33.5 °F 41.0 °F 100% 30.16 in 10.0 mi North 13.8 mph - N/A   Overcast
6:35 AM 41.0 °F 34.3 °F 41.0 °F 100% 30.17 in 10.0 mi North 11.5 mph - N/A   Overcast
6:55 AM 41.0 °F 33.9 °F 41.0 °F 100% 30.17 in 10.0 mi North 12.7 mph - N/A   Overcast
7:15 AM 41.0 °F 34.3 °F 41.0 °F 100% 30.17 in 10.0 mi NNE 11.5 mph - N/A   Overcast
7:35 AM 41.0 °F 34.7 °F 41.0 °F 100% 30.18 in 10.0 mi NNE 10.4 mph - N/A   Overcast
7:55 AM 41.0 °F 35.2 °F 41.0 °F 100% 30.19 in 9.0 mi NNE 9.2 mph - N/A   Overcast
8:15 AM 41.0 °F 35.2 °F 41.0 °F 100% 30.19 in 10.0 mi NNE 9.2 mph - N/A   Overcast
8:35 AM 41.0 °F 34.7 °F 41.0 °F 100% 30.20 in 8.0 mi NNE 10.4 mph - N/A   Overcast
8:55 AM 41.0 °F 35.8 °F 41.0 °F 100% 30.20 in 9.0 mi NNE 8.1 mph - N/A   Overcast
9:15 AM 42.8 °F 38.0 °F 42.8 °F 100% 30.21 in 6.0 mi NE 8.1 mph - N/A   Overcast
9:55 AM 42.8 °F 38.6 °F 42.8 °F 100% 30.20 in 10.0 mi NE 6.9 mph - N/A   Overcast
10:15 AM 42.8 °F - 42.8 °F 100% 30.20 in 10.0 mi Calm Calm - N/A   Overcast
10:35 AM 44.6 °F - 42.8 °F 93% 30.19 in 10.0 mi Calm Calm - N/A   Unknown
10:55 AM 44.6 °F - 42.8 °F 93% 30.18 in 10.0 mi Calm Calm - N/A   Overcast
11:15 AM 44.6 °F - 42.8 °F 93% 30.17 in 10.0 mi Calm Calm - N/A   Overcast
11:35 AM 46.4 °F - 42.8 °F 87% 30.15 in 10.0 mi Calm Calm - N/A   Overcast
11:55 AM 46.4 °F 43.5 °F 42.8 °F 87% 30.13 in 10.0 mi SSW 5.8 mph - N/A   Mostly Cloudy
12:15 PM 46.4 °F 44.3 °F 42.8 °F 87% 30.12 in 10.0 mi South 4.6 mph - N/A   Partly Cloudy
12:35 PM 48.2 °F - 44.6 °F 87% 30.10 in 10.0 mi Variable 3.5 mph - N/A   Clear
12:55 PM 50.0 °F - 44.6 °F 82% 30.09 in 10.0 mi SSE 3.5 mph - N/A   Clear
1:15 PM 50.0 °F - 44.6 °F 82% 30.08 in 10.0 mi Variable 5.8 mph - N/A   Clear
1:35 PM 51.8 °F - 46.4 °F 82% 30.07 in 10.0 mi South 6.9 mph - N/A   Clear
1:55 PM 51.8 °F - 46.4 °F 82% 30.05 in 10.0 mi SSE 5.8 mph - N/A   Clear
2:15 PM 53.6 °F - 46.4 °F 77% 30.05 in 10.0 mi SSE 8.1 mph - N/A   Clear
2:35 PM 53.6 °F - 46.4 °F 77% 30.04 in 10.0 mi SE 6.9 mph - N/A   Clear
2:55 PM 55.4 °F - 44.6 °F 67% 30.03 in 10.0 mi SE 9.2 mph - N/A   Clear
3:15 PM 55.4 °F - 44.6 °F 67% 30.03 in 10.0 mi SE 5.8 mph - N/A   Clear
3:35 PM 55.4 °F - 44.6 °F 67% 30.03 in 10.0 mi SSE 4.6 mph - N/A   Clear
4:15 PM 57.2 °F - 41.0 °F 55% 30.03 in 10.0 mi WSW 12.7 mph - N/A   Scattered Clouds
4:35 PM 57.2 °F - 41.0 °F 55% 30.03 in 10.0 mi SW 16.1 mph - N/A   Scattered Clouds
4:55 PM 55.4 °F - 41.0 °F 58% 30.04 in 10.0 mi WSW 12.7 mph - N/A   Partly Cloudy
5:15 PM 55.4 °F - 41.0 °F 58% 30.04 in 10.0 mi WSW 12.7 mph 20.7 mph N/A   Clear
5:35 PM 51.8 °F - 44.6 °F 76% 30.05 in 10.0 mi West 6.9 mph - N/A   Mostly Cloudy
5:55 PM 51.8 °F - 46.4 °F 82% 30.06 in 10.0 mi WNW 6.9 mph - N/A   Overcast
6:15 PM 50.0 °F - 48.2 °F 94% 30.07 in 10.0 mi West 9.2 mph - N/A   Overcast
6:55 PM 50.0 °F - 44.6 °F 82% 30.08 in 10.0 mi West 8.1 mph - N/A   Clear
7:15 PM 48.2 °F - 42.8 °F 82% 30.09 in 10.0 mi West 10.4 mph - N/A   Clear
7:35 PM 48.2 °F - 41.0 °F 76% 30.09 in 10.0 mi West 11.5 mph - N/A   Clear
7:55 PM 46.4 °F 41.9 °F 41.0 °F 81% 30.09 in 10.0 mi West 9.2 mph - N/A   Clear
8:15 PM 46.4 °F 41.1 °F 41.0 °F 81% 30.10 in 10.0 mi West 11.5 mph - N/A   Clear
8:35 PM 46.4 °F 40.7 °F 41.0 °F 81% 30.10 in 10.0 mi West 12.7 mph - N/A   Clear
8:55 PM 46.4 °F 41.1 °F 39.2 °F 76% 30.11 in 10.0 mi West 11.5 mph - N/A   Clear
9:35 PM 44.6 °F 38.4 °F 39.2 °F 81% 30.11 in 10.0 mi West 12.7 mph - N/A   Clear
9:55 PM 44.6 °F 38.8 °F 39.2 °F 81% 30.11 in 10.0 mi West 11.5 mph - N/A   Clear
10:15 PM 42.8 °F 37.0 °F 39.2 °F 87% 30.12 in 10.0 mi West 10.4 mph - N/A   Clear
10:35 PM 42.8 °F 36.6 °F 39.2 °F 87% 30.12 in 10.0 mi West 11.5 mph - N/A   Clear
10:55 PM 42.8 °F 37.0 °F 39.2 °F 87% 30.13 in 10.0 mi West 10.4 mph - N/A   Clear
11:15 PM 42.8 °F 37.0 °F 39.2 °F 87% 30.12 in 10.0 mi West 10.4 mph - N/A   Clear
11:35 PM 42.8 °F 36.6 °F 39.2 °F 87% 30.12 in 10.0 mi West 11.5 mph - N/A   Clear
11:55 PM 42.8 °F 36.2 °F 37.4 °F 81% 30.12 in 10.0 mi West 12.7 mph - N/A   Clear